Погода в Караганде

Поиск расширенной информации на нашем сайте:

Полезная информация:

Новости сайта



02.01.2020
Опубликован Долгосрочный прогноз погоды по городам России и ближнего зарубежья на январь 2020 года.
Карты: Прогноз на январь и февраль 2020 года, Сравнение прогнозируемой аномалии приземной температуры воздуха на январь 2020 года по разным моделям.




Погода в Караганде - сегодня

Время (UTC), дата Ветер
(°,м/с) 
Видим.   Явления Облачность Т
(°С)
Тd
(°С)
f(%) Тe
(°С)
Pmin
(гПа)
dP
(гПа)
Po
(мм)
O2
(г/м3)
Тmin Tmax R s Состояние
почвы
12 22.10.21 230 (ЮЗ) 20000 м  {ливн. осадки}  8/8 600 м кучево-дожд. 
[Cb cap]
+2.6 -4.9 58 1025.8  0.4  719  287           
15 22.10.21 210 (ЮЗ) 10 км  слаб. ливневой снег  10/10 600 м кучево-дожд. 
[Cb cap]
+0.6 -4.3 70 -2  1027.9  1.4  720  290    +2.8  0.0     
18 22.10.21 220 (ЮЗ) 10 км  слаб. ливневой снег  10/10 600 м кучево-дожд. 
[Cb cap]
+1 -3.4 72 -2  1027.9  0.1  720  289    +2.8  0.0     
21 22.10.21 220 (ЮЗ) 5{15}  10 км  слаб. ливневой снег  10/10 600 м кучево-дожд. 
[Cb cap]
+0.6 -2 83 -2  1028.3  0.4  720  290           
00 23.10.21 210 (ЮЗ) 10 км  слаб. ливневой дождь со снегом  10/10 600 м кучево-дожд. 
[Cb cap]
+0.7 -1.3 86 -3  1028.2  -0.1  720  290           
03 23.10.21 190 (Ю) 20000 м  в посл. час ливневой снег  10/10 600 м кучево-дожд. 
[Cb cap]
+0.5 -0.6 92 -3  1028.3  0.1  720  290  +0.3         
06 23.10.21 220 (ЮЗ) 20000 м  {ливн. осадки}  10/10 600 м кучево-дожд. 
[Cb cap]
+3 -1.1 74 1027.5  -0.2  720  287  +0.3    0.9     
09 23.10.21 200 (Ю) 20000 м    6/3 1000 м верхняя 
[Sc|Ci fib]
+8.1 -1.7 50 +6  1025.5  -0.7  720  282           
12 23.10.21 210 (ЮЗ) 20000 м    4/3 1000 м верхняя 
[Sc|Ci fib]
+8.5 -0.8 52 +7  1026.3  0.9  720  282           
15 23.10.21 210 (ЮЗ) 20000 м    3/0 средняя 
[Ac trans]
+6.5 -3.8 48 +5  1027.9  0.9  721  284    +10.4       
18 23.10.21 220 (ЮЗ) 20000 м    9/9 1000 м 
[Sc]
+7 -3.4 47 +6  1028.2  0.4  721  284    +10.4       
21 23.10.21 220 (ЮЗ) 20000 м    10/10 1000 м 
[Sc]
+6.7 -2.4 52 +5  1028.8  0.6  722  284           
00 24.10.21 200 (Ю) 20000 м    5/0 средняя 
[Ac trans]
+4 -4.1 55 +3  1029.6  722  287           
03 24.10.21 210 (ЮЗ) 20000 м    9/9 1000 м 
[Sc]
+6 -4.2 48 +4  1029.8  0.7  722  285           
06 24.10.21 220 (ЮЗ) 20000 м    9/9 1000 м 
[Sc]
+8.6 -3.9 41 +7  1028.7  -0.4  722  282  +4         
09 24.10.21 220 (ЮЗ) 20000 м    9/9 1000 м 
[Sc]
+10.8 -3.7 36 +10  1027.5  -0.6  722  280           
12 24.10.21 190 (Ю) 20000 м    8/8 1000 м 
[Sc]
+11 -2.2 40 +12  1026.7  -0.7  721  279           
15 24.10.21 150 (ЮВ) 20000 м    ясно 
+6.6 -1.2 57 +8  1027.2  -0.5  721  284    +11.5       
18 24.10.21 180 (Ю) 20000 м    ясно 
+4.7 -1.5 64 +4  1026.5  -1.1  720  285    +11.5       
21 24.10.21 150 (ЮВ) 20000 м    ясно 
+2 -1.6 77 +1  1025.9  -1.2  719  288           
00 25.10.21 130 (ЮВ) 20000 м    ясно 
+0.6 -2.3 81 +1  1024.9  -1.3  718  289           
03 25.10.21 130 (ЮВ) 20000 м    8/0 верхняя 
[Cc]
+2.1 -2.1 74 +1  1024.2  -0.3  718  287           
06 25.10.21 190 (Ю) 20000 м    9/0 верхняя 
[Ci fib]
+9.5 -1.3 47 +10  1022  -0.4  717  279  +0.5         
09 25.10.21 180 (Ю) 20000 м    9/0 верхняя 
[Ci fib]
+13 -3.2 32 +13  1019.1  -1.9  716  276           
12 25.10.21 140 (ЮВ) 20000 м    9/0 верхняя 
[Ci sp]
+11.5 -2 39 +13  1018.4  -1  715  277           
Время (UTC), дата Ветер
(°,м/с) 
Видим.   Явления Облачность Т
(°С)
Тd
(°С)
f(%) Тe
(°С)
Pmin
(гПа)
dP
(гПа)
Po
(мм)
O2
(г/м3)
Тmin Tmax R s Состояние
почвы

Для получения пояснительной информации подведите курсор к названию столбца.

ПОГОДА в Караганде - архив

Всё, что Вы хотите узнать о погоде в Караганде - удобно и подробно!

Выберите нужную дату (начиная с 1 января 2019* года) и нажмите кнопку "Найти".
Будут отображены архивные сводки погоды по пункту Караганда, начиная с указанной даты.


Отображать данные в формате CSV (для использования в таблицах Excel)


Внимание! Наш архив погоды предназначен исключительно для личного некоммерческого использования в познавательных целях. Если Вам необходимы официальные справки о состоянии погоды (для производственных, юридических, коммерческих и т.п. целей), обращайтесь в органы Росгидромета.

*Примечание: данная дата относится к архиву по метеостанциям СССР (Россия, СНГ, Балтия).
Архив по метеостанциям Зарубежной Европы и Азии (кроме Китая) хранится 10 дней, по другим регионам земного шара (Китай, Африка, Америка, Австралия, Океания) - 1 день.

Караганда - район местоположения метеостанции


Название, широта, долгота, высота метеостанции:
Караганда (город) 49.8°ш. 73.2°д. 553 м над ур. моря [Казахстан]

Дополнительная информация

В oтличие oт бoльшинства пoгoдных сайтoв мы публикуем пoдрoбную метеoинфoрмацию в детальнoм прoфессиoнальнoм фoрмате.

Характеристики температуры и влажнoсти вoздуха измеряются на высoте 2 м в тени вдали oт зданий и деревьев.
Скoрoсть ветра измеряется на высoте 10 м (на урoвне рoста челoвека скoрoсть ветра ниже в 1.5-2 раза). Если метеoстанция нахoдится в гoрoде или в лесу, тo скoрoсть ветра занижена на 2-4 м/с пo сравнению с oткрытым местoм. Скoрoсть ветра над акватoриями крупных рек и oзёр, а также на вершинах хoлмoв на 2-5 м/с выше, чем в oбычных услoвиях.
Атмoсфернoе давление в разных тoчках местнoсти мoжет значительнo oтличаться oт давления на метеoстанции, в зависимoсти oт услoвий рельефа (при пoдъёме на 10 м давление пoнижается примернo на 1 мм рт.ст.).